Time,TemperatureF,DewpointF,PressureIn,WindDirection,WindDirectionDegrees,WindSpeedMPH,WindSpeedGustMPH,Humidity,HourlyPrecipIn,Conditions,Clouds,dailyrainin,SoftwareType,DateUTC
2013-06-01 00:00:00,47.2,45.8,30.22,North,0,0.0,0.0,95,0.00,,,0.00,Wunderground v.1.12,2013-06-01 06:00:00,
2013-06-01 00:05:00,46.9,45.5,30.22,North,0,0.0,0.0,95,0.00,,,0.00,Wunderground v.1.12,2013-06-01 06:05:00,
2013-06-01 00:10:00,46.7,45.1,30.23,North,0,0.0,0.0,94,0.00,,,0.00,Wunderground v.1.12,2013-06-01 06:10:00,
2013-06-01 00:15:00,46.6,45.0,30.23,North,0,0.0,0.0,94,0.00,,,0.00,Wunderground v.1.12,2013-06-01 06:15:00,
2013-06-01 00:25:00,46.1,44.5,30.23,North,0,0.0,0.0,94,0.00,,,0.00,Wunderground v.1.12,2013-06-01 06:25:00,
2013-06-01 00:30:00,45.9,44.3,30.23,North,0,0.0,0.0,94,0.00,,,0.00,Wunderground v.1.12,2013-06-01 06:30:00,
2013-06-01 00:40:00,45.9,44.5,30.23,North,0,0.0,0.0,95,0.00,,,0.00,Wunderground v.1.12,2013-06-01 06:40:00,
2013-06-01 00:45:00,45.5,43.9,30.23,North,0,0.0,0.0,94,0.00,,,0.00,Wunderground v.1.12,2013-06-01 06:45:00,
2013-06-01 00:50:00,45.5,44.2,30.23,North,0,0.0,0.0,95,0.00,,,0.00,Wunderground v.1.12,2013-06-01 06:50:00,
2013-06-01 00:55:00,45.2,43.9,30.24,North,0,0.0,0.0,95,0.00,,,0.00,Wunderground v.1.12,2013-06-01 06:55:00,
2013-06-01 01:00:00,44.9,43.3,30.23,North,0,0.0,0.0,94,0.00,,,0.00,Wunderground v.1.12,2013-06-01 07:00:00,
2013-06-01 01:05:00,44.8,43.2,30.24,North,0,0.0,0.0,94,0.00,,,0.00,Wunderground v.1.12,2013-06-01 07:05:00,
2013-06-01 01:10:00,44.4,43.1,30.24,North,0,0.0,0.0,95,0.00,,,0.00,Wunderground v.1.12,2013-06-01 07:10:00,
2013-06-01 01:15:00,44.5,43.2,30.23,North,0,0.0,0.0,95,0.00,,,0.00,Wunderground v.1.12,2013-06-01 07:15:00,
2013-06-01 01:25:00,44.1,42.5,30.23,North,0,0.0,0.0,94,0.00,,,0.00,Wunderground v.1.12,2013-06-01 07:25:00,
2013-06-01 01:30:00,43.9,42.3,30.23,North,0,0.0,0.0,94,0.00,,,0.00,Wunderground v.1.12,2013-06-01 07:30:00,
2013-06-01 01:35:00,43.7,42.4,30.23,North,0,0.0,0.0,95,0.00,,,0.00,Wunderground v.1.12,2013-06-01 07:35:00,
2013-06-01 01:40:00,43.6,42.3,30.23,North,0,0.0,0.0,95,0.00,,,0.00,Wunderground v.1.12,2013-06-01 07:40:00,
2013-06-01 01:45:00,43.4,41.8,30.23,North,0,0.0,0.0,94,0.00,,,0.00,Wunderground v.1.12,2013-06-01 07:45:00,
2013-06-01 01:50:00,43.4,41.8,30.23,North,0,0.0,0.0,94,0.00,,,0.00,Wunderground v.1.12,2013-06-01 07:50:00,
2013-06-01 02:00:00,42.7,41.4,30.23,North,0,0.0,0.0,95,0.00,,,0.00,Wunderground v.1.12,2013-06-01 08:00:00,
2013-06-01 02:05:00,43.4,42.1,30.23,N/A,-737280,0.0,0.0,95,0.00,,,0.00,Wunderground v.1.12,2013-06-01 08:05:00,
2013-06-01 02:10:00,42.6,41.3,30.23,North,0,0.0,0.0,95,0.00,,,0.00,Wunderground v.1.12,2013-06-01 08:10:00,
2013-06-01 02:15:00,42.6,41.3,30.23,North,0,0.0,0.0,95,0.00,,,0.00,Wunderground v.1.12,2013-06-01 08:15:00,
2013-06-01 02:20:00,42.1,40.8,30.23,North,0,0.0,0.0,95,0.00,,,0.00,Wunderground v.1.12,2013-06-01 08:20:00,
2013-06-01 02:30:00,42.1,40.8,30.23,North,0,0.0,0.0,95,0.00,,,0.00,Wunderground v.1.12,2013-06-01 08:30:00,
2013-06-01 02:35:00,42.1,40.8,30.23,North,0,0.0,0.0,95,0.00,,,0.00,Wunderground v.1.12,2013-06-01 08:35:00,
2013-06-01 02:40:00,41.5,39.9,30.23,North,0,0.0,0.0,94,0.00,,,0.00,Wunderground v.1.12,2013-06-01 08:40:00,
2013-06-01 02:45:00,41.7,40.4,30.23,North,0,0.0,0.0,95,0.00,,,0.00,Wunderground v.1.12,2013-06-01 08:45:00,
2013-06-01 02:50:00,41.7,40.4,30.23,North,0,0.0,0.0,95,0.00,,,0.00,Wunderground v.1.12,2013-06-01 08:50:00,
2013-06-01 03:00:00,41.4,40.1,30.23,North,0,0.0,0.0,95,0.00,,,0.00,Wunderground v.1.12,2013-06-01 09:00:00,
2013-06-01 03:05:00,41.0,39.7,30.23,North,358,0.0,0.0,95,0.00,,,0.00,Wunderground v.1.12,2013-06-01 09:05:00,
2013-06-01 03:10:00,40.7,39.4,30.23,North,358,0.0,0.0,95,0.00,,,0.00,Wunderground v.1.12,2013-06-01 09:10:00,
2013-06-01 03:15:00,40.8,39.7,30.24,North,358,0.0,0.0,96,0.00,,,0.00,Wunderground v.1.12,2013-06-01 09:15:00,
2013-06-01 03:20:00,40.6,39.5,30.24,North,356,0.0,0.0,96,0.00,,,0.00,Wunderground v.1.12,2013-06-01 09:20:00,
2013-06-01 03:30:00,40.3,39.3,30.23,North,353,0.0,0.0,96,0.00,,,0.00,Wunderground v.1.12,2013-06-01 09:30:00,
2013-06-01 03:35:00,40.5,39.4,30.24,North,355,0.0,0.0,96,0.00,,,0.00,Wunderground v.1.12,2013-06-01 09:35:00,
2013-06-01 03:40:00,40.0,39.0,30.23,North,357,0.0,0.0,96,0.00,,,0.00,Wunderground v.1.12,2013-06-01 09:40:00,
2013-06-01 03:45:00,39.9,38.6,30.23,North,357,0.0,0.0,95,0.00,,,0.00,Wunderground v.1.12,2013-06-01 09:45:00,
2013-06-01 03:50:00,40.0,38.7,30.23,North,358,0.0,0.0,95,0.00,,,0.00,Wunderground v.1.12,2013-06-01 09:50:00,
2013-06-01 04:00:00,40.0,39.0,30.23,North,356,0.0,0.0,96,0.00,,,0.00,Wunderground v.1.12,2013-06-01 10:00:00,
2013-06-01 04:05:00,39.7,38.7,30.23,North,357,0.0,0.0,96,0.00,,,0.00,Wunderground v.1.12,2013-06-01 10:05:00,
2013-06-01 04:10:00,39.6,38.8,30.23,North,358,0.0,0.0,97,0.00,,,0.00,Wunderground v.1.12,2013-06-01 10:10:00,
2013-06-01 04:15:00,39.7,38.9,30.23,North,358,0.0,0.0,97,0.00,,,0.00,Wunderground v.1.12,2013-06-01 10:15:00,
2013-06-01 04:20:00,39.2,38.2,30.23,North,358,0.0,0.0,96,0.00,,,0.00,Wunderground v.1.12,2013-06-01 10:20:00,
2013-06-01 04:25:00,39.1,38.1,30.23,North,358,0.0,0.0,96,0.00,,,0.00,Wunderground v.1.12,2013-06-01 10:25:00,
2013-06-01 04:35:00,38.9,37.9,30.23,North,357,0.0,0.0,96,0.00,,,0.00,Wunderground v.1.12,2013-06-01 10:35:00,
2013-06-01 04:45:00,38.8,38.0,30.23,North,358,0.0,0.0,97,0.00,,,0.00,Wunderground v.1.12,2013-06-01 10:45:00,
2013-06-01 04:55:00,38.7,37.7,30.23,North,357,0.0,0.0,96,0.00,,,0.00,Wunderground v.1.12,2013-06-01 10:55:00,
2013-06-01 05:05:00,38.2,37.4,30.23,North,354,0.0,0.0,97,0.00,,,0.00,Wunderground v.1.12,2013-06-01 11:05:00,
2013-06-01 05:10:00,38.1,37.3,30.23,North,354,0.0,0.0,97,0.00,,,0.00,Wunderground v.1.12,2013-06-01 11:10:00,
2013-06-01 05:15:00,38.1,37.3,30.23,North,356,0.0,0.0,97,0.00,,,0.00,Wunderground v.1.12,2013-06-01 11:15:00,
2013-06-01 05:20:00,37.7,36.9,30.23,North,353,0.0,0.0,97,0.00,,,0.00,Wunderground v.1.12,2013-06-01 11:20:00,
2013-06-01 05:25:00,37.8,37.0,30.23,North,354,0.0,0.0,97,0.00,,,0.00,Wunderground v.1.12,2013-06-01 11:25:00,
2013-06-01 05:35:00,37.8,37.0,30.23,North,356,0.0,0.0,97,0.00,,,0.00,Wunderground v.1.12,2013-06-01 11:35:00,
2013-06-01 05:40:00,37.6,36.8,30.23,North,358,0.0,0.0,97,0.00,,,0.00,Wunderground v.1.12,2013-06-01 11:40:00,
2013-06-01 05:45:00,37.7,37.2,30.23,North,357,0.0,0.0,98,0.00,,,0.00,Wunderground v.1.12,2013-06-01 11:45:00,
2013-06-01 05:50:00,37.6,36.8,30.23,North,355,0.0,0.0,97,0.00,,,0.00,Wunderground v.1.12,2013-06-01 11:50:00,
2013-06-01 05:55:00,37.5,36.7,30.23,North,357,0.0,0.0,97,0.00,,,0.00,Wunderground v.1.12,2013-06-01 11:55:00,
2013-06-01 06:00:00,37.5,37.0,30.23,North,358,0.0,0.0,98,0.00,,,0.00,Wunderground v.1.12,2013-06-01 12:00:00,
2013-06-01 06:10:00,37.7,37.2,30.23,North,358,0.0,0.0,98,0.00,,,0.00,Wunderground v.1.12,2013-06-01 12:10:00,
2013-06-01 06:15:00,37.7,37.4,30.23,North,357,0.0,0.0,99,0.00,,,0.00,Wunderground v.1.12,2013-06-01 12:15:00,
2013-06-01 06:20:00,38.3,38.0,30.23,North,358,0.0,0.0,99,0.00,,,0.00,Wunderground v.1.12,2013-06-01 12:20:00,
2013-06-01 06:25:00,38.9,38.6,30.23,North,358,0.0,0.0,99,0.00,,,0.00,Wunderground v.1.12,2013-06-01 12:25:00,
2013-06-01 06:35:00,40.2,40.2,30.23,North,356,0.0,0.0,100,0.00,,,0.00,Wunderground v.1.12,2013-06-01 12:35:00,
2013-06-01 06:40:00,40.7,40.7,30.23,North,358,0.0,0.0,100,0.00,,,0.00,Wunderground v.1.12,2013-06-01 12:40:00,
2013-06-01 06:45:00,41.2,41.2,30.23,North,358,0.0,0.0,100,0.00,,,0.00,Wunderground v.1.12,2013-06-01 12:45:00,
2013-06-01 06:50:00,41.2,41.2,30.23,North,358,0.0,0.0,100,0.00,,,0.00,Wunderground v.1.12,2013-06-01 12:50:00,
2013-06-01 06:55:00,41.4,41.1,30.22,North,358,0.0,0.0,99,0.00,,,0.00,Wunderground v.1.12,2013-06-01 12:55:00,
2013-06-01 07:05:00,41.7,41.4,30.22,North,359,0.0,0.0,99,0.00,,,0.00,Wunderground v.1.12,2013-06-01 13:05:00,
2013-06-01 07:15:00,42.0,42.0,30.22,North,0,0.0,0.0,100,0.00,,,0.00,Wunderground v.1.12,2013-06-01 13:15:00,
2013-06-01 07:20:00,41.9,41.9,30.22,North,0,0.0,0.0,100,0.00,,,0.00,Wunderground v.1.12,2013-06-01 13:20:00,
2013-06-01 07:25:00,42.4,42.4,30.22,North,0,0.0,0.0,100,0.00,,,0.00,Wunderground v.1.12,2013-06-01 13:25:00,
2013-06-01 07:30:00,42.3,42.3,30.22,North,0,0.0,0.0,100,0.00,,,0.00,Wunderground v.1.12,2013-06-01 13:30:00,
2013-06-01 07:40:00,43.2,43.2,30.22,North,0,0.0,0.0,100,0.00,,,0.00,Wunderground v.1.12,2013-06-01 13:40:00,
2013-06-01 07:45:00,43.6,43.6,30.22,North,0,0.0,0.0,100,0.00,,,0.00,Wunderground v.1.12,2013-06-01 13:45:00,
2013-06-01 07:55:00,44.0,44.0,30.21,North,0,0.0,0.0,100,0.00,,,0.00,Wunderground v.1.12,2013-06-01 13:55:00,
2013-06-01 08:00:00,44.3,44.3,30.21,North,0,0.0,0.0,100,0.00,,,0.00,Wunderground v.1.12,2013-06-01 14:00:00,
2013-06-01 08:05:00,43.5,43.5,30.22,N/A,-737280,0.0,0.0,100,0.00,,,0.00,Wunderground v.1.12,2013-06-01 14:05:00,
2013-06-01 08:15:00,44.8,44.8,30.21,North,0,0.0,0.0,100,0.00,,,0.00,Wunderground v.1.12,2013-06-01 14:15:00,
2013-06-01 08:20:00,45.3,45.3,30.21,North,0,0.0,0.0,100,0.00,,,0.00,Wunderground v.1.12,2013-06-01 14:20:00,
2013-06-01 08:30:00,45.9,45.9,30.20,North,0,0.0,0.0,100,0.00,,,0.00,Wunderground v.1.12,2013-06-01 14:30:00,
2013-06-01 08:35:00,46.6,46.6,30.20,North,0,0.0,0.0,100,0.00,,,0.00,Wunderground v.1.12,2013-06-01 14:35:00,
2013-06-01 08:45:00,47.2,47.2,30.20,North,0,0.0,0.0,100,0.00,,,0.00,Wunderground v.1.12,2013-06-01 14:45:00,
2013-06-01 08:55:00,48.4,48.4,30.20,North,0,0.0,0.0,100,0.00,,,0.00,Wunderground v.1.12,2013-06-01 14:55:00,
2013-06-01 09:05:00,49.2,48.7,30.20,North,0,0.0,0.0,98,0.00,,,0.00,Wunderground v.1.12,2013-06-01 15:05:00,
2013-06-01 09:10:00,49.6,48.8,30.20,North,0,0.0,0.0,97,0.00,,,0.00,Wunderground v.1.12,2013-06-01 15:10:00,
2013-06-01 09:15:00,50.1,49.0,30.19,North,0,0.0,0.0,96,0.00,,,0.00,Wunderground v.1.12,2013-06-01 15:15:00,
2013-06-01 09:25:00,51.5,49.5,30.19,North,0,0.0,0.0,93,0.00,,,0.00,Wunderground v.1.12,2013-06-01 15:25:00,
2013-06-01 09:30:00,52.4,49.8,30.19,WSW,244,0.0,0.0,91,0.00,,,0.00,Wunderground v.1.12,2013-06-01 15:30:00,
2013-06-01 09:35:00,53.1,49.9,30.19,WSW,244,0.0,0.0,89,0.00,,,0.00,Wunderground v.1.12,2013-06-01 15:35:00,
2013-06-01 09:40:00,53.7,50.2,30.19,SSW,203,0.0,0.0,88,0.00,,,0.00,Wunderground v.1.12,2013-06-01 15:40:00,
2013-06-01 09:50:00,55.5,50.7,30.18,SW,218,0.0,0.0,84,0.00,,,0.00,Wunderground v.1.12,2013-06-01 15:50:00,
2013-06-01 10:00:00,56.8,51.4,30.18,South,176,0.0,0.0,82,0.00,,,0.00,Wunderground v.1.12,2013-06-01 16:00:00,
2013-06-01 10:05:00,57.4,51.6,30.18,SSW,194,0.0,0.0,81,0.00,,,0.00,Wunderground v.1.12,2013-06-01 16:05:00,
2013-06-01 10:15:00,58.3,51.8,30.17,SSW,200,0.0,0.0,79,0.00,,,0.00,Wunderground v.1.12,2013-06-01 16:15:00,
2013-06-01 10:20:00,59.0,52.1,30.17,SSW,212,0.0,0.0,78,0.00,,,0.00,Wunderground v.1.12,2013-06-01 16:20:00,
2013-06-01 10:25:00,59.5,52.3,30.17,WSW,254,0.0,0.0,77,0.00,,,0.00,Wunderground v.1.12,2013-06-01 16:25:00,
2013-06-01 10:30:00,59.8,52.6,30.17,SW,234,0.0,0.0,77,0.00,,,0.00,Wunderground v.1.12,2013-06-01 16:30:00,
2013-06-01 10:35:00,59.8,52.6,30.17,WSW,248,0.0,0.0,77,0.00,,,0.00,Wunderground v.1.12,2013-06-01 16:35:00,
2013-06-01 10:40:00,60.0,53.1,30.16,North,0,0.0,0.0,78,0.00,,,0.00,Wunderground v.1.12,2013-06-01 16:40:00,
2013-06-01 10:50:00,61.1,53.1,30.16,WSW,241,0.0,0.0,75,0.00,,,0.00,Wunderground v.1.12,2013-06-01 16:50:00,
2013-06-01 10:55:00,61.7,53.3,30.16,North,0,0.0,0.0,74,0.00,,,0.00,Wunderground v.1.12,2013-06-01 16:55:00,
2013-06-01 11:00:00,61.7,53.0,30.16,SW,224,0.0,0.0,73,0.00,,,0.00,Wunderground v.1.12,2013-06-01 17:00:00,
2013-06-01 11:05:00,61.8,52.7,30.16,West,262,0.0,0.0,72,0.00,,,0.00,Wunderground v.1.12,2013-06-01 17:05:00,
2013-06-01 11:10:00,62.0,52.9,30.16,South,182,0.0,0.0,72,0.00,,,0.00,Wunderground v.1.12,2013-06-01 17:10:00,
2013-06-01 11:15:00,62.2,52.7,30.16,SW,214,0.0,0.0,71,0.00,,,0.00,Wunderground v.1.12,2013-06-01 17:15:00,
2013-06-01 11:25:00,63.7,52.9,30.15,WSW,242,0.0,0.0,68,0.00,,,0.00,Wunderground v.1.12,2013-06-01 17:25:00,
2013-06-01 11:30:00,64.2,54.2,30.15,WSW,244,0.0,0.0,70,0.00,,,0.00,Wunderground v.1.12,2013-06-01 17:30:00,
2013-06-01 11:35:00,64.9,54.5,30.15,WSW,240,0.0,0.0,69,0.00,,,0.00,Wunderground v.1.12,2013-06-01 17:35:00,
2013-06-01 11:40:00,62.7,52.8,30.15,N/A,-737280,0.0,0.0,70,0.00,,,0.00,Wunderground v.1.12,2013-06-01 17:40:00,
2013-06-01 11:45:00,65.5,54.7,30.15,SW,232,0.0,0.0,68,0.00,,,0.00,Wunderground v.1.12,2013-06-01 17:45:00,
2013-06-01 11:55:00,66.3,55.0,30.14,SW,225,0.0,0.0,67,0.00,,,0.00,Wunderground v.1.12,2013-06-01 17:55:00,
2013-06-01 12:05:00,66.9,55.6,30.14,South,169,0.0,0.0,67,0.00,,,0.00,Wunderground v.1.12,2013-06-01 18:05:00,
2013-06-01 12:10:00,67.4,55.2,30.13,SW,232,0.0,0.0,65,0.00,,,0.00,Wunderground v.1.12,2013-06-01 18:10:00,
2013-06-01 12:15:00,67.5,56.6,30.13,South,181,0.0,0.0,68,0.00,,,0.00,Wunderground v.1.12,2013-06-01 18:15:00,
2013-06-01 12:25:00,66.8,55.1,30.13,WSW,242,0.0,0.0,66,0.00,,,0.00,Wunderground v.1.12,2013-06-01 18:25:00,
2013-06-01 12:30:00,67.0,54.8,30.12,SW,224,0.0,0.0,65,0.00,,,0.00,Wunderground v.1.12,2013-06-01 18:30:00,
2013-06-01 12:35:00,67.1,54.9,30.12,South,176,0.0,0.0,65,0.00,,,0.00,Wunderground v.1.12,2013-06-01 18:35:00,
2013-06-01 12:40:00,67.6,55.8,30.12,SW,223,0.0,0.0,66,0.00,,,0.00,Wunderground v.1.12,2013-06-01 18:40:00,
2013-06-01 12:45:00,68.2,55.1,30.12,SW,215,0.0,0.0,63,0.00,,,0.00,Wunderground v.1.12,2013-06-01 18:45:00,
2013-06-01 12:50:00,68.2,55.6,30.11,South,186,0.0,0.0,64,0.00,,,0.00,Wunderground v.1.12,2013-06-01 18:50:00,
2013-06-01 12:55:00,68.4,55.3,30.11,South,179,2.0,2.0,63,0.00,,,0.00,Wunderground v.1.12,2013-06-01 18:55:00,
2013-06-01 13:00:00,67.4,55.2,30.11,South,183,0.0,0.0,65,0.00,,,0.00,Wunderground v.1.12,2013-06-01 19:00:00,
2013-06-01 13:05:00,66.6,54.0,30.11,South,191,0.0,0.0,64,0.00,,,0.00,Wunderground v.1.12,2013-06-01 19:05:00,
2013-06-01 13:10:00,66.2,54.9,30.11,SSW,196,0.0,0.0,67,0.00,,,0.00,Wunderground v.1.12,2013-06-01 19:10:00,
2013-06-01 13:15:00,66.1,54.0,30.10,SW,235,0.0,0.0,65,0.00,,,0.00,Wunderground v.1.12,2013-06-01 19:15:00,
2013-06-01 13:20:00,66.5,53.5,30.10,SE,135,0.0,0.0,63,0.00,,,0.00,Wunderground v.1.12,2013-06-01 19:20:00,
2013-06-01 13:30:00,66.3,54.2,30.10,South,181,0.0,0.0,65,0.00,,,0.00,Wunderground v.1.12,2013-06-01 19:30:00,
2013-06-01 13:35:00,66.4,53.4,30.09,South,171,0.0,0.0,63,0.00,,,0.00,Wunderground v.1.12,2013-06-01 19:35:00,
2013-06-01 13:40:00,66.3,54.2,30.09,South,185,0.0,0.0,65,0.00,,,0.00,Wunderground v.1.12,2013-06-01 19:40:00,
2013-06-01 13:45:00,66.0,53.0,30.09,WSW,248,0.0,0.0,63,0.00,,,0.00,Wunderground v.1.12,2013-06-01 19:45:00,
2013-06-01 13:50:00,65.8,52.4,30.09,South,177,0.0,0.0,62,0.00,,,0.00,Wunderground v.1.12,2013-06-01 19:50:00,
2013-06-01 14:00:00,65.4,53.3,30.08,SSW,210,0.0,0.0,65,0.00,,,0.00,Wunderground v.1.12,2013-06-01 20:00:00,
2013-06-01 14:05:00,65.4,52.0,30.08,South,186,0.0,0.0,62,0.00,,,0.00,Wunderground v.1.12,2013-06-01 20:05:00,
2013-06-01 14:10:00,65.2,51.8,30.08,South,187,0.0,0.0,62,0.00,,,0.00,Wunderground v.1.12,2013-06-01 20:10:00,
2013-06-01 14:15:00,65.4,51.6,30.08,South,190,0.0,0.0,61,0.00,,,0.00,Wunderground v.1.12,2013-06-01 20:15:00,
2013-06-01 14:20:00,65.4,51.6,30.07,SSE,166,0.0,0.0,61,0.00,,,0.00,Wunderground v.1.12,2013-06-01 20:20:00,
2013-06-01 14:25:00,65.8,52.4,30.07,South,181,0.0,0.0,62,0.00,,,0.00,Wunderground v.1.12,2013-06-01 20:25:00,
2013-06-01 14:30:00,66.4,53.0,30.07,SSE,151,0.0,0.0,62,0.00,,,0.00,Wunderground v.1.12,2013-06-01 20:30:00,
2013-06-01 14:35:00,66.6,53.6,30.07,South,186,0.0,0.0,63,0.00,,,0.00,Wunderground v.1.12,2013-06-01 20:35:00,
2013-06-01 14:40:00,67.0,52.7,30.07,SSE,150,5.0,5.0,60,0.00,,,0.00,Wunderground v.1.12,2013-06-01 20:40:00,
2013-06-01 14:45:00,67.2,53.7,30.06,South,184,0.0,0.0,62,0.00,,,0.00,Wunderground v.1.12,2013-06-01 20:45:00,
2013-06-01 14:50:00,67.0,53.1,30.06,South,182,0.0,0.0,61,0.00,,,0.00,Wunderground v.1.12,2013-06-01 20:50:00,
2013-06-01 14:55:00,67.2,53.7,30.06,South,180,0.0,0.0,62,0.00,,,0.00,Wunderground v.1.12,2013-06-01 20:55:00,
2013-06-01 15:05:00,67.4,53.5,30.07,SW,236,0.0,0.0,61,0.00,,,0.00,Wunderground v.1.12,2013-06-01 21:05:00,
2013-06-01 15:10:00,67.0,52.7,30.06,South,172,0.0,0.0,60,0.00,,,0.00,Wunderground v.1.12,2013-06-01 21:10:00,
2013-06-01 15:15:00,66.8,53.8,30.06,North,356,2.0,2.0,63,0.00,,,0.00,Wunderground v.1.12,2013-06-01 21:15:00,
2013-06-01 15:20:00,67.2,54.2,30.06,SSW,196,0.0,0.0,63,0.00,,,0.00,Wunderground v.1.12,2013-06-01 21:20:00,
2013-06-01 15:30:00,67.3,52.5,30.05,WSW,249,0.0,0.0,59,0.00,,,0.00,Wunderground v.1.12,2013-06-01 21:30:00,
2013-06-01 15:35:00,67.2,51.9,30.05,WSW,247,0.0,0.0,58,0.00,,,0.00,Wunderground v.1.12,2013-06-01 21:35:00,
2013-06-01 15:40:00,67.3,52.0,30.05,SW,223,0.0,0.0,58,0.00,,,0.00,Wunderground v.1.12,2013-06-01 21:40:00,
2013-06-01 15:45:00,66.9,52.6,30.05,North,355,0.0,0.0,60,0.00,,,0.00,Wunderground v.1.12,2013-06-01 21:45:00,
2013-06-01 15:50:00,66.8,52.5,30.04,WSW,241,0.0,0.0,60,0.00,,,0.00,Wunderground v.1.12,2013-06-01 21:50:00,
2013-06-01 15:55:00,66.8,51.5,30.04,South,187,0.0,0.0,58,0.00,,,0.00,Wunderground v.1.12,2013-06-01 21:55:00,
2013-06-01 16:05:00,67.0,51.7,30.04,West,273,0.0,0.0,58,0.00,,,0.00,Wunderground v.1.12,2013-06-01 22:05:00,
2013-06-01 16:10:00,67.1,51.8,30.04,North,0,0.0,0.0,58,0.00,,,0.00,Wunderground v.1.12,2013-06-01 22:10:00,
2013-06-01 16:15:00,67.0,51.3,30.04,North,0,0.0,0.0,57,0.00,,,0.00,Wunderground v.1.12,2013-06-01 22:15:00,
2013-06-01 16:25:00,66.7,50.5,30.04,SSE,165,0.0,0.0,56,0.00,,,0.00,Wunderground v.1.12,2013-06-01 22:25:00,
2013-06-01 16:30:00,66.5,48.8,30.03,North,0,0.0,0.0,53,0.00,,,0.00,Wunderground v.1.12,2013-06-01 22:30:00,
2013-06-01 16:35:00,66.5,49.3,30.03,South,177,0.0,0.0,54,0.00,,,0.00,Wunderground v.1.12,2013-06-01 22:35:00,
2013-06-01 16:40:00,66.5,48.8,30.03,South,186,0.0,0.0,53,0.00,,,0.00,Wunderground v.1.12,2013-06-01 22:40:00,
2013-06-01 16:45:00,66.4,49.7,30.03,SSW,196,0.0,0.0,55,0.00,,,0.00,Wunderground v.1.12,2013-06-01 22:45:00,
2013-06-01 16:50:00,66.6,50.4,30.03,WSW,242,0.0,0.0,56,0.00,,,0.00,Wunderground v.1.12,2013-06-01 22:50:00,
2013-06-01 17:00:00,66.5,49.8,30.03,NNW,336,0.0,0.0,55,0.00,,,0.00,Wunderground v.1.12,2013-06-01 23:00:00,
2013-06-01 17:05:00,66.6,48.9,30.02,South,178,0.0,0.0,53,0.00,,,0.00,Wunderground v.1.12,2013-06-01 23:05:00,
2013-06-01 17:15:00,66.3,48.7,30.02,SSW,195,0.0,0.0,53,0.00,,,0.00,Wunderground v.1.12,2013-06-01 23:15:00,
2013-06-01 17:20:00,66.0,49.8,30.02,SW,232,0.0,0.0,56,0.00,,,0.00,Wunderground v.1.12,2013-06-01 23:20:00,
2013-06-01 17:25:00,65.9,49.3,30.02,SW,230,0.0,0.0,55,0.00,,,0.00,Wunderground v.1.12,2013-06-01 23:25:00,
2013-06-01 17:30:00,66.0,50.3,30.02,SSW,213,0.0,0.0,57,0.00,,,0.00,Wunderground v.1.12,2013-06-01 23:30:00,
2013-06-01 17:40:00,66.1,49.5,30.01,SSE,160,1.0,1.0,55,0.00,,,0.00,Wunderground v.1.12,2013-06-01 23:40:00,
2013-06-01 17:45:00,66.0,48.9,30.01,South,188,0.0,0.0,54,0.00,,,0.00,Wunderground v.1.12,2013-06-01 23:45:00,
2013-06-01 17:50:00,66.0,48.9,30.01,South,179,0.0,0.0,54,0.00,,,0.00,Wunderground v.1.12,2013-06-01 23:50:00,
2013-06-01 17:55:00,66.2,49.1,30.01,South,174,0.0,0.0,54,0.00,,,0.00,Wunderground v.1.12,2013-06-01 23:55:00,
2013-06-01 18:00:00,66.6,48.9,30.01,SW,225,0.0,0.0,53,0.00,,,0.00,Wunderground v.1.12,2013-06-02 00:00:00,
2013-06-01 18:10:00,66.0,47.9,30.00,South,187,0.0,0.0,52,0.00,,,0.00,Wunderground v.1.12,2013-06-02 00:10:00,
2013-06-01 18:15:00,66.0,49.8,30.00,WSW,241,0.0,0.0,56,0.00,,,0.00,Wunderground v.1.12,2013-06-02 00:15:00,
2013-06-01 18:25:00,66.1,49.5,30.00,SSW,194,0.0,0.0,55,0.00,,,0.00,Wunderground v.1.12,2013-06-02 00:25:00,
2013-06-01 18:30:00,65.9,50.2,30.00,SSW,194,0.0,0.0,57,0.00,,,0.00,Wunderground v.1.12,2013-06-02 00:30:00,
2013-06-01 18:35:00,66.1,50.4,30.00,South,180,0.0,2.0,57,0.00,,,0.00,Wunderground v.1.12,2013-06-02 00:35:00,
2013-06-01 18:45:00,65.5,49.9,29.99,South,188,0.0,0.0,57,0.00,,,0.00,Wunderground v.1.12,2013-06-02 00:45:00,
2013-06-01 18:50:00,65.2,49.6,30.00,South,186,0.0,0.0,57,0.00,,,0.00,Wunderground v.1.12,2013-06-02 00:50:00,
2013-06-01 18:55:00,64.8,49.2,29.99,South,187,0.0,0.0,57,0.00,,,0.00,Wunderground v.1.12,2013-06-02 00:55:00,
2013-06-01 19:00:00,64.5,49.8,29.99,South,181,0.0,0.0,59,0.00,,,0.00,Wunderground v.1.12,2013-06-02 01:00:00,
2013-06-01 19:05:00,64.2,49.6,29.99,SSW,200,0.0,0.0,59,0.00,,,0.00,Wunderground v.1.12,2013-06-02 01:05:00,
2013-06-01 19:15:00,64.0,49.8,29.99,South,186,0.0,0.0,60,0.00,,,0.00,Wunderground v.1.12,2013-06-02 01:15:00,
2013-06-01 19:20:00,63.9,50.2,29.99,South,180,0.0,0.0,61,0.00,,,0.00,Wunderground v.1.12,2013-06-02 01:20:00,
2013-06-01 19:25:00,63.6,50.3,29.99,South,180,0.0,0.0,62,0.00,,,0.00,Wunderground v.1.12,2013-06-02 01:25:00,
2013-06-01 19:35:00,63.1,49.0,29.99,SE,144,0.0,0.0,60,0.00,,,0.00,Wunderground v.1.12,2013-06-02 01:35:00,
2013-06-01 19:45:00,62.9,48.8,29.99,SE,144,0.0,0.0,60,0.00,,,0.00,Wunderground v.1.12,2013-06-02 01:45:00,
2013-06-01 19:50:00,62.8,48.7,29.99,SE,144,0.0,0.0,60,0.00,,,0.00,Wunderground v.1.12,2013-06-02 01:50:00,
2013-06-01 19:55:00,62.6,49.8,29.99,ESE,109,0.0,0.0,63,0.00,,,0.00,Wunderground v.1.12,2013-06-02 01:55:00,
2013-06-01 20:00:00,62.6,51.1,29.99,ESE,109,0.0,0.0,66,0.00,,,0.00,Wunderground v.1.12,2013-06-02 02:00:00,
2013-06-01 20:05:00,62.5,51.4,29.99,ESE,109,0.0,0.0,67,0.00,,,0.00,Wunderground v.1.12,2013-06-02 02:05:00,
2013-06-01 20:10:00,62.5,53.0,29.99,ESE,109,0.0,0.0,71,0.00,,,0.00,Wunderground v.1.12,2013-06-02 02:10:00,
2013-06-01 20:20:00,62.5,53.3,29.99,ESE,109,0.0,0.0,72,0.00,,,0.00,Wunderground v.1.12,2013-06-02 02:20:00,
2013-06-01 20:25:00,62.3,53.2,29.99,ESE,109,0.0,0.0,72,0.00,,,0.00,Wunderground v.1.12,2013-06-02 02:25:00,
2013-06-01 20:30:00,62.0,53.6,29.99,ESE,109,0.0,0.0,74,0.00,,,0.00,Wunderground v.1.12,2013-06-02 02:30:00,
2013-06-01 20:35:00,61.7,54.4,29.99,ESE,109,0.0,0.0,77,0.00,,,0.00,Wunderground v.1.12,2013-06-02 02:35:00,
2013-06-01 20:40:00,61.5,54.6,29.99,ESE,109,0.0,0.0,78,0.00,,,0.00,Wunderground v.1.12,2013-06-02 02:40:00,
2013-06-01 20:45:00,61.1,54.5,29.99,ESE,109,0.0,0.0,79,0.00,,,0.00,Wunderground v.1.12,2013-06-02 02:45:00,
2013-06-01 20:55:00,60.4,52.8,29.99,ESE,109,0.0,0.0,76,0.00,,,0.00,Wunderground v.1.12,2013-06-02 02:55:00,
2013-06-01 21:00:00,60.2,53.3,29.98,ESE,109,0.0,0.0,78,0.00,,,0.00,Wunderground v.1.12,2013-06-02 03:00:00,
2013-06-01 21:10:00,59.5,52.6,29.98,East,99,0.0,0.0,78,0.00,,,0.00,Wunderground v.1.12,2013-06-02 03:10:00,
2013-06-01 21:15:00,59.2,52.3,29.98,East,98,0.0,0.0,78,0.00,,,0.00,Wunderground v.1.12,2013-06-02 03:15:00,
2013-06-01 21:20:00,58.9,52.1,29.98,NNE,25,0.0,0.0,78,0.00,,,0.00,Wunderground v.1.12,2013-06-02 03:20:00,
2013-06-01 21:25:00,58.7,51.9,29.98,North,0,0.0,0.0,78,0.00,,,0.00,Wunderground v.1.12,2013-06-02 03:25:00,
2013-06-01 21:30:00,58.4,51.9,29.98,North,0,0.0,0.0,79,0.00,,,0.00,Wunderground v.1.12,2013-06-02 03:30:00,
2013-06-01 21:35:00,58.0,51.9,29.98,North,0,0.0,0.0,80,0.00,,,0.00,Wunderground v.1.12,2013-06-02 03:35:00,
2013-06-01 21:40:00,57.7,51.6,29.98,North,0,0.0,0.0,80,0.00,,,0.00,Wunderground v.1.12,2013-06-02 03:40:00,
2013-06-01 21:45:00,57.5,51.7,29.98,North,0,0.0,0.0,81,0.00,,,0.00,Wunderground v.1.12,2013-06-02 03:45:00,
2013-06-01 21:55:00,56.8,51.4,29.98,North,0,0.0,0.0,82,0.00,,,0.00,Wunderground v.1.12,2013-06-02 03:55:00,
2013-06-01 22:00:00,56.6,51.2,29.98,North,0,0.0,0.0,82,0.00,,,0.00,Wunderground v.1.12,2013-06-02 04:00:00,
2013-06-01 22:05:00,56.1,51.0,29.98,North,0,0.0,0.0,83,0.00,,,0.00,Wunderground v.1.12,2013-06-02 04:05:00,
2013-06-01 22:10:00,55.7,50.6,29.98,North,0,0.0,0.0,83,0.00,,,0.00,Wunderground v.1.12,2013-06-02 04:10:00,
2013-06-01 22:15:00,55.4,50.6,29.98,North,0,0.0,0.0,84,0.00,,,0.00,Wunderground v.1.12,2013-06-02 04:15:00,
2013-06-01 22:20:00,55.0,50.3,29.98,North,0,0.0,0.0,84,0.00,,,0.00,Wunderground v.1.12,2013-06-02 04:20:00,
2013-06-01 22:25:00,54.6,49.9,29.98,North,0,0.0,0.0,84,0.00,,,0.00,Wunderground v.1.12,2013-06-02 04:25:00,
2013-06-01 22:30:00,54.4,50.0,29.98,North,0,0.0,0.0,85,0.00,,,0.00,Wunderground v.1.12,2013-06-02 04:30:00,
2013-06-01 22:35:00,54.1,50.0,29.98,North,0,0.0,0.0,86,0.00,,,0.00,Wunderground v.1.12,2013-06-02 04:35:00,
2013-06-01 22:40:00,53.8,49.7,29.98,North,0,0.0,0.0,86,0.00,,,0.00,Wunderground v.1.12,2013-06-02 04:40:00,
2013-06-01 22:45:00,53.6,49.5,29.98,North,0,0.0,0.0,86,0.00,,,0.00,Wunderground v.1.12,2013-06-02 04:45:00,
2013-06-01 22:50:00,53.2,49.1,29.98,North,0,0.0,0.0,86,0.00,,,0.00,Wunderground v.1.12,2013-06-02 04:50:00,
2013-06-01 22:55:00,52.9,49.1,29.98,North,0,0.0,0.0,87,0.00,,,0.00,Wunderground v.1.12,2013-06-02 04:55:00,
2013-06-01 23:00:00,52.8,49.0,29.98,North,0,0.0,0.0,87,0.00,,,0.00,Wunderground v.1.12,2013-06-02 05:00:00,
2013-06-01 23:05:00,52.4,48.6,29.97,North,0,0.0,0.0,87,0.00,,,0.00,Wunderground v.1.12,2013-06-02 05:05:00,
2013-06-01 23:10:00,52.2,48.4,29.98,North,0,0.0,0.0,87,0.00,,,0.00,Wunderground v.1.12,2013-06-02 05:10:00,
2013-06-01 23:15:00,52.2,48.4,29.98,North,0,0.0,0.0,87,0.00,,,0.00,Wunderground v.1.12,2013-06-02 05:15:00,
2013-06-01 23:20:00,52.0,48.3,29.98,North,0,0.0,0.0,87,0.00,,,0.00,Wunderground v.1.12,2013-06-02 05:20:00,
2013-06-01 23:25:00,51.9,48.2,29.98,North,0,0.0,0.0,87,0.00,,,0.00,Wunderground v.1.12,2013-06-02 05:25:00,
2013-06-01 23:30:00,51.8,48.4,29.98,North,0,0.0,0.0,88,0.00,,,0.00,Wunderground v.1.12,2013-06-02 05:30:00,
2013-06-01 23:35:00,51.8,48.4,29.97,North,0,0.0,0.0,88,0.00,,,0.00,Wunderground v.1.12,2013-06-02 05:35:00,
2013-06-01 23:40:00,51.7,48.3,29.97,North,0,0.0,0.0,88,0.00,,,0.00,Wunderground v.1.12,2013-06-02 05:40:00,
2013-06-01 23:45:00,51.6,48.5,29.97,North,0,0.0,0.0,89,0.00,,,0.00,Wunderground v.1.12,2013-06-02 05:45:00,
2013-06-01 23:50:00,51.4,48.3,29.97,North,0,0.0,0.0,89,0.00,,,0.00,Wunderground v.1.12,2013-06-02 05:50:00,